Погода в Адворицах

Россия / Псковская область     57°43′09″N   28°00′10″E
темп.,
°C
ветер,
м/с
пор.,
м/с
влажн.,
%
обл.,
%
осадки,
мм/ч
давл.,
гПа
погр.,
м
21 июня, пн
пн2100:00+22ю34780 0.0 101665
03:00+19ю37894 0.3 1017140
06:00+20ююв379231 0.1 1016156
09:00+25ю46735 0.1 1016505
12:00+29ююв56565 0.1 10171112
15:00+31ююв55465 0.1 10161601
18:00+30ююв46495 0.0 1015855
21:00+26ююв35690 0.0 101482
22 июня, вт
вт2200:00+22ю411740 0.0 1015218
03:00+19ююв367930 0.0 1016105
06:00+19юв398195 0.0 1015200
09:00+25ююв586782 0.0 1014503
12:00+29ююв695178 0.0 10141492
15:00+30ююв6950100 0.0 10141940
18:00+28ююз596142 0.0 10131139
21:00+25ю387784 0.1 1014328
23 июня, ср
ср2300:00+22ю388850 0.1 1014155
03:00+20ю389273 0.1 1015154
06:00+21ююв378932 0.0 1015190
09:00+26ююв47685 0.0 1015470
12:00+29ююв57515 0.0 10161242
15:00+31ю57380 0.0 10151902
18:00+30ююз47445 0.0 10151075
21:00+25ююз377169 0.0 1015126
24 июня, чт
чт2400:00+21ссз3691100 0.3 1016142
03:00+19юв119599 0.4 101617
06:00+20юз2594100 0.4 1016168
09:00+22з2382100 0.4 1017515
12:00+26зюз2456100 0.0 10171163
15:00+26зюз1354100 0.0 1017953
18:00+28з25520 0.0 10151496
21:00+22с35720 0.0 101693
25 июня, пт
пт2500:00+19ссз35740 0.0 101679
03:00+17с22865 0.0 101624
06:00+18св128528 0.1 101667
09:00+23всв237955 0.8 1015420
12:00+28всв235673 0.0 10141193
15:00+30вюв244840 0.1 10131837
18:00+26св357057 0.8 1011967
21:00+19всв249699 10.8 101095